sat.trackr.live / text

‹ back to catalog

STARLINK-33885

NORAD 63886 · 2025-094Y

PAYLOAD ACTIVE UNKNOWN

§ Identity

Operator
Country
US
Launch date
2025-05-10
Launch site
AFWTR
Launch vehicle
Mass (kg)
RCS (m²)

Purposes: comms

External: N2YO · Heavens-Above · Gunter

§ Orbital elements

Epoch: 2026-09-20T14:04:19.426080Z

Period
94.14 min
Inclination
69.9994°
Eccentricity
0.0003041
Mean motion
15.29559454 rev/d
Perigee alt
475.0 km
Apogee alt
479.2 km
Semi-major
6,855.3 km
B*
1.1161e-4
RAAN
100.7876°
Arg perigee
267.1902°
Mean anomaly
92.8925°
Rev number
7,645

§ Raw data

STARLINK-338851 63886U 25094Y   26263.58633595  .00003080  00000+0  11161-3 0  99972 63886  69.9994 100.7876 0003041 267.1902  92.8925 15.29559454 76459

JSON: /api/v1/satellites/63886 · /tle

For live sub-satellite position, see the globe view (requires WebGL).

§ Visibility from observer

Set your observer location to see the next 7 days of passes ≥ 10°. The values pass through the URL so the page stays shareable.

No JS? Fill the form by hand. The geolocation button needs JavaScript.